Weather History for Bandar Lengeh, Iran

Change the Weather History Date:

Sunday, February 17, 2013

  Actual Average Record
Temperature  
Mean Temperature 70 °F -  
Max Temperature 77 °F 77 °F - ()
Min Temperature 62 °F 60 °F - ()
Cooling Degree Days 4    
Growing Degree Days 20 (Base 50)    
Moisture  
Dew Point 59 °F    
Average Humidity 63    
Maximum Humidity 83    
Minimum Humidity 36    
Precipitation  
Precipitation 0.00 in 0.04 in - ()
Sea Level Pressure  
Sea Level Pressure 29.85 in    
Wind  
Wind Speed 9 mph ()    
Max Wind Speed 21 mph    
Max Gust Speed -    
Visibility 4.2 miles    
Events      
T = Trace of Precipitation, MM = Missing Value Source: Averaged Metar Reports

Daily Weather History Graph

Daily Weather History Graph

Search for Another Location

Airport:

Trip Planner

Search our weather history database for the weather conditions in past years. The results will help you decide how hot, cold, wet, or windy it might be!

Date:

Astronomy

Feb. 17, 2013 Rise Set
Actual Time 6:25 AM IRST 5:44 PM IRST
Civil Twilight 6:01 AM IRST 6:08 PM IRST
Nautical Twilight 5:34 AM IRST 6:35 PM IRST
Astronomical Twilight 5:07 AM IRST 7:02 PM IRST
Moon 10:44 AM IRST (2/17) 12:28 AM IRST
Length of Visible Light 12h 06m
Length of Day
11h 19m
Waxing Crescent, 45% of the Moon is Illuminated
Feb 17
Waxing Crescent
Feb 18
First Quarter
Feb 25
Full
Mar 5
Last Quarter
Mar 11
New

Hourly Weather History & Observations

Time (IRST) Temp. Dew Point Humidity Pressure Visibility Wind Dir Wind Speed Gust Speed Precip Events Conditions
12:30 AM 68.0 °F 59.0 °F 73% 29.89 in 5.0 mi NW 4.6 mph - N/A   Clear
3:30 AM 65 °F 58 °F 73% 29.87 in 4 mi North 4.5 mph - -   Haze
3:30 AM 64.4 °F 59.0 °F 83% 29.86 in 3.7 mi North 4.6 mph - N/A   Clear
5:30 AM 68.0 °F 60.8 °F 78% 29.86 in 3.7 mi West 11.5 mph - N/A   Clear
6:30 AM 62.6 °F 55.4 °F 77% 29.86 in 3.7 mi Calm Calm - N/A   Clear
7:30 AM 64.4 °F 55.4 °F 73% 29.89 in 3.7 mi Calm Calm - N/A   Clear
8:30 AM 71.6 °F 55.4 °F 57% 29.89 in 5.0 mi WSW 9.2 mph - N/A   Unknown
9:30 AM 75 °F 53 °F 36% 29.91 in 5 mi WSW 13.4 mph - -   Haze
9:30 AM 75.2 °F 53.6 °F 47% 29.89 in 5.0 mi WSW 13.8 mph - N/A   Unknown
10:30 AM 77.0 °F 55.4 °F 47% 29.89 in 5.0 mi WSW 13.8 mph - N/A   Unknown
11:30 AM 77.0 °F 53.6 °F 44% 29.89 in - WSW 16.1 mph - N/A   Clear
12:30 PM 77.0 °F 55.4 °F 47% 29.86 in - WSW 16.1 mph - N/A   Clear
1:30 PM 77.0 °F 55.4 °F 47% 29.83 in - SW 18.4 mph - N/A   Clear
2:30 PM 77.0 °F 57.2 °F 50% 29.80 in - WSW 18.4 mph - N/A   Clear
3:30 PM 76 °F 58 °F 44% 29.82 in 5 mi WSW 20.1 mph - -   Blowing Sand
3:30 PM 77.0 °F 59.0 °F 54% 29.80 in 5.0 mi WSW 20.7 mph - N/A   Unknown
4:20 PM 75.2 °F 59.0 °F 57% 29.80 in 5.0 mi West 18.4 mph - N/A   Unknown
4:30 PM 75.2 °F 59.0 °F 57% 29.80 in 5.0 mi West 18.4 mph - N/A   Unknown
5:20 PM 73.4 °F 60.8 °F 65% 29.80 in 3.7 mi WSW 16.1 mph - N/A   Unknown
5:30 PM 73.4 °F 60.8 °F 65% 29.80 in 3.7 mi WSW 16.1 mph - N/A   Unknown
6:20 PM 71.6 °F 64.4 °F 78% 29.83 in 3.7 mi West 9.2 mph - N/A   Clear
6:30 PM 71.6 °F 64.4 °F 78% 29.83 in 3.7 mi West 9.2 mph - N/A   Clear
7:20 PM 71.6 °F 62.6 °F 73% 29.86 in 3.7 mi WNW 6.9 mph - N/A   Clear
7:30 PM 71.6 °F 62.6 °F 73% 29.86 in 3.7 mi WNW 6.9 mph - N/A   Clear
8:20 PM 71.6 °F 62.6 °F 73% 29.83 in 3.7 mi WSW 6.9 mph - N/A   Unknown
8:30 PM 71.6 °F 62.6 °F 73% 29.83 in 3.7 mi WSW 6.9 mph - N/A   Unknown
9:20 PM 71.6 °F 62.6 °F 73% 29.86 in 3.7 mi WSW 9.2 mph - N/A   Unknown
9:30 PM 71 °F 62 °F 65% 29.86 in 4 mi WSW 8.9 mph - -   Haze
9:30 PM 71.6 °F 62.6 °F 73% 29.86 in 3.7 mi WSW 9.2 mph - N/A   Unknown